Погода в Форсса

Финляндия     60°48′55″N   23°37′31″E
темп.,
°C
ветер,
м/с
пор.,
м/с
влажн.,
%
обл.,
%
осадки,
мм/ч
давл.,
гПа
погр.,
м
12 апреля, пн
пн1200:00+3вюв31173100 0.1 1024391
03:00+3вюв51485100 0.4 1021662
06:00+4вюв51397100 0.9 1018531
09:00+6ююв41394100 0.9 1017559
12:00+11ю51374100 0.0 1016905
15:00+11ю61271100 0.0 1016943
18:00+9ю51377100 0.0 1016784
21:00+8ю41193100 0.2 1016785
13 апреля, вт
вт1300:00+6ююз3896100 0.5 1016509
03:00+4юз2791100 0.5 1016461
06:00+3юз269183 0.0 1016361
09:00+4ююз387963 0.0 1017597
12:00+7юз5857100 0.0 10181443
15:00+7юз5847100 0.0 10191534
18:00+6юз595575 0.0 10191243
21:00+2ююз498599 0.0 1020585
14 апреля, ср
ср1400:00+1ююз3109440 0.0 1020470
03:000ююз279766 0.0 1020256
06:00−1юз279725 0.0 1020222
09:00+2з367439 0.0 1021583
12:00+5зсз345965 0.0 10221201
15:00+5сз445857 0.0 10231236
18:00+5ссз235681 0.0 10241100
21:00+2с367486 0.0 1026183
15 апреля, чт
чт1500:000ссв2382100 0.0 102750
03:00−1с228496 0.0 102842
06:00−1с22835 0.0 102929
09:00+3с12635 0.0 1029406
12:00+6ссз23410 0.0 10291053
15:00+8ссз34380 0.0 10281294
18:00+9ссз34475 0.0 10281323
21:00+4с22745 0.0 102933
16 апреля, пт
пт1600:00+2с25820 0.0 103089
03:00+1ссв27895 0.0 1031139
06:000ссв39935 0.0 1032184
09:00+5св48755 0.0 1033432
12:00+8св46450 0.0 10341102
15:00+10св56410 0.0 10351404
18:00+10св46455 0.0 10351384
21:00+5св39650 0.0 1037242